Location: ????????
(38.3117°N, 23.7402°E)
Time: 04:16:53
(UTC+00:00)

Daily predictions for brighter satellites

Satellite Brightness Start Highest point End
(mag) Time Altitude Azimuth Time Altitude Azimuth Time Altitude Azimuth
CZ-2C R/B 4.4 01:03:07 10° NE 01:06:27 24° E 01:06:27 24° E
ADEOS II 4.5 01:16:32 10° N 01:17:15 14° N 01:17:15 14° N
Cosmos 1934 Rocket 4.3 01:24:02 65° ENE 01:24:02 65° ENE 01:29:59 10° NNE
ATLAS CENTAUR R/B 4.3 01:35:23 11° SE 01:37:28 14° ESE 01:40:00 10° ENE
DELTA 2 R/B (1) 4.5 01:49:14 39° SE 01:49:14 39° SE 01:54:07 10° E
Atlas Centaur 2 3.4 01:53:42 40° S 01:54:33 41° S 02:01:13 10° ESE
PAYLOAD A 4.1 01:50:02 10° NNE 01:54:28 69° ENE 01:54:28 69° ENE
Meteor 1-14 Rocket 4.4 01:56:20 10° N 02:02:17 73° E 02:08:04 10° SSE
Cosmos 1656 4.1 01:57:27 10° NNW 02:03:07 61° ENE 02:08:42 10° SE
Tiangong 0.4 02:05:56 22° ENE 02:05:56 22° ENE 02:07:14 10° E
ALOS 3.0 02:02:30 10° N 02:05:40 41° NNW 02:05:40 41° NNW
X-37B 3.1 02:12:01 19° NE 02:12:01 19° NE 02:13:02 10° ENE
Meteor 1-5 Rocket 3.9 02:09:40 10° NNW 02:15:02 69° W 02:15:43 61° SW
USA 307 3.0 02:15:27 70° ESE 02:15:27 70° ESE 02:19:22 10° NE
ARIANE 5 R/B 2.6 02:12:51 10° NNE 02:17:54 74° ESE 02:20:32 28° S
Helios 1B rocket 2.7 02:16:07 10° N 02:19:28 57° NNW 02:19:28 57° NNW
Cosmos 1023 Rocket 4.4 02:23:18 10° NNW 02:28:31 87° WSW 02:33:46 10° SSE
Cosmos 1633 Rocket 3.9 02:25:08 10° N 02:29:22 49° E 02:33:33 10° SSE
USA 306 2.7 02:29:43 67° NW 02:29:50 68° NW 02:33:57 10° NE
Cosmos 1153 Rocket 4.5 02:24:10 10° S 02:30:17 83° E 02:36:29 10° N
Cosmos 1624 Rocket 4.0 02:30:23 22° SSW 02:33:53 82° ESE 02:39:13 10° NNE
Cosmos 1484 Rocket 2.8 02:31:35 10° NNE 02:35:34 82° ESE 02:37:39 27° S
Cosmos 2098 Rocket 3.1 02:33:13 10° N 02:36:00 45° E 02:38:55 10° SSE
ERS-1 4.4 02:32:00 10° N 02:37:12 78° WNW 02:41:03 18° SSW
USA 234 3.2 02:30:48 10° NE 02:37:23 90° NW 02:41:22 26° SW
Cosmos 1666 Rocket 3.6 02:34:37 10° N 02:39:05 82° E 02:43:34 10° S
Cosmos 1833 Rocket 2.6 02:38:02 32° SW 02:40:40 66° WNW 02:46:18 10° NNE
CZ-2C R/B 4.0 02:35:26 10° NNE 02:41:06 54° E 02:46:31 10° S
Cosmos 1328 Rocket 3.5 02:38:04 13° S 02:41:58 86° E 02:46:22 10° N
CZ-2C R/B 3.1 02:40:55 10° N 02:45:23 33° WNW 02:45:49 33° W
Cosmos 1371 Rocket 3.9 02:43:22 23° SSW 02:46:44 71° WNW 02:52:00 10° NNE
Meteor 1-4 Rocket 3.9 02:43:22 10° N 02:46:49 41° ENE 02:50:16 10° SSE
Aureole 3 4.2 02:47:46 32° WNW 02:47:46 32° WNW 02:50:35 10° NNW
Cosmos 2251 Rocket 3.8 02:43:03 10° NNW 02:47:56 40° WSW 02:52:47 10° S
COSMOS 2406 3.4 02:43:43 10° SSW 02:49:22 75° ESE 02:55:02 10° NNE
USA 308 3.0 02:48:54 41° W 02:49:59 56° NW 02:54:04 10° NE
Cosmos 375 4.5 02:48:01 25° SSW 02:50:08 70° ESE 02:54:15 10° NE
Cosmos 1515 3.6 02:49:11 36° SW 02:50:30 60° W 02:54:11 10° N
Envisat 3.0 02:45:39 10° NNE 02:50:45 85° ESE 02:55:50 10° SSW
Cosmos 2082 Rocket 2.8 02:45:24 10° S 02:50:51 57° ESE 02:56:21 10° NNE
Cosmos 1447 Rocket 4.4 02:44:37 10° NNW 02:50:54 69° W 02:57:05 10° S
IRS-1C 4.4 02:47:30 10° N 02:52:33 45° WNW 02:55:30 23° SW
ERBS 4.0 02:56:41 16° NNW 02:56:41 16° NNW 02:58:12 10° N
Orbus 7S? 3.9 02:56:26 30° NW 02:57:00 32° NNW 03:01:05 10° NNE
Cosmos 1536 2.9 02:54:10 10° N 02:58:13 78° E 03:02:15 10° S
Cosmos 44 Rocket 3.9 02:53:39 10° SSW 02:58:17 55° ESE 03:02:52 10° NE
PSLV R/B 4.3 02:54:10 10° NNE 02:58:26 54° E 03:02:37 10° S
FALCON 9 R/B 2.2 02:59:39 17° S 02:59:39 17° S 03:00:48 10° SSE
Cosmos 1515 Rocket 3.9 02:55:34 10° S 02:59:55 67° E 03:04:21 10° NNE
Cosmos 1151 Rocket 3.7 02:59:57 29° W 03:00:41 31° WNW 03:04:30 10° NNW
Cosmos 1140 Rocket 3.8 03:00:28 10° NW 03:05:17 40° WSW 03:10:07 10° S
YAOGAN 6 2.9 03:03:41 10° N 03:07:10 45° WNW 03:09:49 16° SW
Cosmos 1697 Rocket 2.6 03:02:00 10° NNW 03:07:41 86° WSW 03:13:20 10° SSE
IKONOS-2 4.4 03:03:57 10° S 03:08:05 61° WSW 03:12:18 10° NNW
Cosmos 1470 Rocket 3.5 03:05:42 10° N 03:10:02 86° E 03:14:24 10° S
Cosmos 1346 Rocket 3.4 03:11:34 17° SW 03:14:05 34° WNW 03:17:44 10° N
ATLAS CENTAUR R/B 1.8 03:11:26 13° SW 03:15:38 64° WNW 03:20:30 10° NNE
ASTRO E2 4.0 03:14:55 16° SW 03:17:17 28° S 03:20:40 10° ESE
Cosmos 2056 Rocket 4.0 03:13:20 14° SW 03:17:23 39° WNW 03:22:10 10° N
Meteor 1-27 Rocket 3.8 03:12:31 10° SSW 03:18:08 59° WNW 03:23:53 10° N
Cosmos 1802 Rocket 4.1 03:11:52 10° S 03:18:18 88° E 03:24:41 10° N
Cosmos 2084 4.5 03:17:23 18° W 03:19:14 24° WSW 03:22:42 10° S
CZ-2C R/B 3.0 03:15:12 10° SSW 03:19:58 37° W 03:24:49 10° NNW
USA 305 4.1 03:18:17 17° WNW 03:20:29 27° NNW 03:24:04 10° NNE
CENTAUR R/B 2.8 03:17:35 10° SSW 03:22:58 63° ESE 03:29:28 10° NE
SJ-6F 4.4 03:18:54 10° NNE 03:23:05 90° WSW 03:27:12 10° SSW
Cosmos 1459 Rocket 4.0 03:17:08 10° SSW 03:23:23 67° W 03:29:45 10° N
Cosmos 1743 2.9 03:20:27 10° NNW 03:24:04 44° W 03:27:40 10° SSW
Cosmos 1190 Rocket 4.2 03:19:51 10° NNW 03:24:49 47° WSW 03:29:47 10° S
Cosmos 1441 Rocket 3.8 03:22:19 10° SW 03:25:40 32° WNW 03:29:03 10° N
Cosmos 1954 Rocket 3.9 03:21:14 10° NNW 03:26:27 72° WSW 03:31:41 10° S
CZ-2C R/B 2.6 03:22:51 10° N 03:26:36 69° WNW 03:30:22 10° SSW
Delta 2 Rocket 4.1 03:25:57 11° SW 03:28:44 31° SSE 03:31:44 10° E
COSMO-SKYMED 1 3.1 03:28:16 10° SSE 03:32:33 63° ENE 03:36:51 10° N
Spot 4 Rocket 4.4 03:29:13 10° N 03:34:03 43° WNW 03:38:52 10° SW
Cosmos 1725 Rocket 4.1 03:27:53 10° S 03:34:11 89° E 03:40:32 10° N
NOSS 3-2 (A) 3.3 03:29:00 10° SSW 03:34:15 79° ESE 03:40:16 10° NE
DELTA 2 R/B (1) 3.6 03:30:00 12° WSW 03:35:08 89° S 03:40:46 10° ENE
Cosmos 1939 Rocket 4.4 03:32:34 10° NNE 03:36:25 40° E 03:40:10 10° S
CZ-4C R/B 3.6 03:33:47 10° S 03:37:40 49° W 03:41:46 10° NNW
Cosmos 1378 3.0 03:35:07 10° SSW 03:38:43 72° W 03:42:21 10° N
Tiangong -1.8 03:38:04 11° W 03:40:55 49° SSW 03:43:57 10° SE
Okean 1 3.5 03:38:21 10° SSW 03:42:17 52° W 03:46:15 10° N
Meteor 1-29 4.4 03:40:45 10° NNW 03:43:04 18° WNW 03:45:23 10° WSW
SJ-12 3.9 03:39:24 10° N 03:43:27 67° WNW 03:47:29 10° SSW
Atlas Centaur 2 3.3 03:36:18 10° WSW 03:43:34 44° S 03:49:33 10° ESE
Meteor 2-9 Rocket 4.2 03:38:44 10° N 03:44:31 82° W 03:50:07 10° S
BREEZE-M DEB (TANK) 3.6 03:42:03 10° NW 03:45:16 60° NE 03:55:08 10° ESE
Cosmos 2369 3.7 03:39:39 10° NNW 03:45:20 79° WSW 03:50:58 10° SSE
X-37B 2.2 03:43:39 10° WNW 03:46:00 22° N 03:48:20 10° NE
Cosmos 1980 Rocket 2.2 03:40:33 10° NNW 03:46:11 84° WSW 03:51:45 10° SSE
Lacrosse 4 Rocket 4.3 03:44:33 10° NNE 03:47:11 15° NE 03:49:49 10° E
H-2A R/B 4.0 03:43:51 10° NNE 03:48:51 36° E 03:53:49 10° SSE
Cosmos 2173 Rocket 4.4 03:44:47 10° SW 03:50:26 38° WNW 03:56:05 10° N
Cosmos 1869 Rocket 4.1 03:47:28 10° N 03:51:54 67° E 03:56:16 10° SSE
Cosmos 2278 4.4 03:48:29 10° NNW 03:54:05 60° ENE 03:59:39 10° SE
H-2A R/B 3.9 03:51:40 10° NNW 03:54:32 22° WNW 03:57:23 10° WSW
USA 307 4.5 03:51:49 10° WNW 03:54:59 21° NNW 03:58:10 10° NNE
